Regional Weather Roundup
Issued by NWS Wakefield, VA

Home | Current Version | Previous Version | Graphics & Text | Print | Product List | Glossary On
Versions: 1 2 3 4 5 6 7 8 9 10 11 12 13 14 15 16 17 18 19 20 21 22 23 24 25 26 27 28 29 30 31 32 33 34 35 36 37 38 39 40 41 42 43 44 45 46 47 48 49 50
000
ASUS41 KAKQ 201215
RWRAKQ

REGIONAL WEATHER ROUNDUP
NATIONAL WEATHER SERVICE WAKEFIELD VA
700 AM EST FRI JAN 20 2017

Note: "fair" indicates few or no clouds below 12,000 feet with no
significant weather and/or obstructions to visibility. * = Denotes
station may not report precipitation (e.g., rain,snow,etc.),
thunder or fog.

VAZ042-051-052>054-056-201300-
NORTHERN VIRGINIA

CITY           SKY/WX    TMP DP  RH WIND       PRES   REMARKS
WASH NATIONAL  CLOUDY    41  37  86 CALM      29.97F
DULLES         CLOUDY    40  36  86 E3        29.93F
FORT BELVOIR   CLOUDY    37  35  94 CALM      29.95F
QUANTICO       CLOUDY    41  40  96 CALM      29.98F
FREDERICKSBRG* CLOUDY    40  40 100 CALM      29.96S
STAFFORD*      CLOUDY    36  36 100 CALM      30.02R
WARRENTON      CLOUDY    39  35  87 CALM      29.96R
CULPEPER*      CLOUDY    40  38  93 CALM      29.97R
MANASSAS*      CLOUDY   N/A N/A N/A CALM      29.97
LEESBURG*      CLOUDY    37  37 100 MISG      29.94F
WINCHESTER     CLOUDY    36  34  93 CALM      29.89S
FRONT ROYAL*   CLOUDY    37  36  93 CALM      29.89R
LURAY*         CLOUDY    39  39 100 S3        29.90R
$$

VAZ048-049-060>072-079>083-201300-
CENTRAL AND SOUTH CENTRAL VIRGINIA

CITY           SKY/WX    TMP DP  RH WIND       PRES   REMARKS
RICHMOND       CLOUDY    43  40  89 S3        29.97R
CHESTERFIELD*  PTSUNNY   43  27  52 SE3       29.96S
PETERSBURG*    CLOUDY    41  39  93 CALM      29.97S
HANOVER        CLOUDY    42  38  85 S3        29.98R
TAPPAHANNOCK*  CLOUDY    43  38  84 SE3       29.97F
QUINTON*       CLOUDY    42  39  90 MISG      29.97R
CHARLOTTSVILLE CLOUDY    43  39  86 N3        29.91S
GORDONSVILLE*  CLOUDY    40  39  93 CALM      29.95R
ORANGE*          N/A     41  41 100 CALM      29.98R
LOUISA*        CLOUDY    45  43  93 CALM      29.93S
BUMPASS*       CLOUDY    40  39  97 CALM      29.96R
FARMVILLE*     CLOUDY    43  41  93 CALM      29.92F
CREWE*         PTSUNNY   43  43 100 S3        29.94F
FORT PICKETT*  FAIR      42  38  88 SE5       29.94F
CHASE CITY*    PTSUNNY   44  42  95 E5        29.92S
CLARKSVILLE*   PTSUNNY   45  43  93 E5        29.92F
SOUTH HILL*    CLOUDY    42  42  99 CALM      29.99S
LAWRENCEVILLE* FAIR      42  41  97 CALM      29.95S
EMPORIA*       CLOUDY    39  39 100 CALM      29.97F FOG
$$

VAZ088>098-201300-
SOUTHEAST VIRGINIA

CITY           SKY/WX    TMP DP  RH WIND       PRES   REMARKS
NORFOLK        CLOUDY    44  41  89 S3        29.98S
VIRGINIA BEACH CLOUDY    39  37  92 CALM      29.98S FOG
NORFOLK NAVAL  MOCLDY    44  42  93 SE3       29.99F
WEST POINT*    CLOUDY    42  40  92 E5        29.99F
SALUDA*        FAIR      41  40  98 E3        29.97F
NEWPORT NEWS   CLOUDY    42  40  92 SE3       29.98F
LANGLEY AFB    CLOUDY    41  41  99 CALM      29.97F
FORT EUSTIS    CLOUDY    44  40  87 SE3       29.95F
WILLIAMSBURG*  MOCLDY    45  43  93 SE6       29.98S
HR EXEC AP*    FAIR      41  39  93 SE3       29.97R
FRANKLIN*      CLOUDY    43  39  86 E5        29.96F
US460-WAKEFLD  CLOUDY    43  39  86 VRB3      29.96F
$$

VAZ020-022-025-037-045-201300-
WEST CENTRAL AND SOUTHWEST VIRGINIA

CITY           SKY/WX    TMP DP  RH WIND       PRES   REMARKS
STAUNTON*      CLOUDY    41  39  93 CALM      29.90F
WAYNESBORO*    FAIR      43  37  79 SE7       29.88F
HOT SPRINGS VA LGT RAIN  39  37  93 S10       29.85R
LYNCHBURG      CLOUDY    45  40  82 CALM      29.93R
DANVILLE       CLOUDY    44  42  93 E5        29.90S
SOUTH BOSTON*  PTSUNNY   44  42  95 CALM      29.93R
MARTINSVILLE   MIX PCPN  42  40  95 CALM      29.93R
ROANOKE        HVY RAIN  45  42  89 SW6       29.95R FOG
BLACKSBURG     RAIN      44  42  95 CALM      29.92S
DUBLIN*        LGT RAIN  46  44  93 CALM      29.89S
MARION*        LGT RAIN  48  46  95 NE7       29.86F
HILLSVILLE*    LGT RAIN  44  44 100 CALM      29.84S
RICHLANDS*     CLOUDY   N/A N/A N/A SW8G16    29.79F
WISE*          CLOUDY    52  52 100 S6        29.80R
ABINGDON*      CLOUDY    53  52  95 CALM      29.82R
$$

MDZ021>025-VAZ099-100-201300-
SOUTHERN MARYLAND AND THE DELMARVA PENINSULA

CITY           SKY/WX    TMP DP  RH WIND       PRES   REMARKS
PATUXENT RIVER CLOUDY    38  37  97 SE5       29.98F
BAY BRIDGE APT PTCLDY    36  36 100 SE5       29.99F FOG
LEONARDTOWN    CLOUDY    37  36  93 CALM      29.98F
DOVER          MOCLDY    35  35 100 CALM      30.00R
GEORGETOWN       N/A     34  33  96 CALM      30.02R
EASTON         CLOUDY    36  34  93 CALM      30.04R
CAMBRIDGE      CLOUDY    32  32 100 CALM      29.99F
SALISBURY      CLOUDY    34  33  96 CALM      30.00R
OCEAN CITY     CLOUDY    35  35 100 CALM      30.01R FOG
WALLOPS ISLAND PTCLDY    35  35 100 CALM      30.01R
ACCOMACK*      CLOUDY    37  36  95 CALM      29.99F
$$

NCZ012>017-030>032-201300-
NORTH CENTRAL AND EASTERN NORTH CAROLINA

CITY           SKY/WX    TMP DP  RH WIND       PRES   REMARKS
ROANOKE RAPIDS FAIR      41  41 100 CALM      29.96R FOG
RALEIGH        CLOUDY    48  43  82 SE5       29.94R
ELIZABETH CITY CLOUDY    44  42  93 E6        29.98F
AHOSKIE*       CLOUDY    42  40  92 CALM      29.96F
EDENTON*       CLOUDY    47  43  85 CALM      29.97F
CURRITUCK*     CLOUDY    43  43 100 CALM      30.00S FOG
KILL DEVIL HLS NOT AVBL
MANTEO         CLOUDY    42  42 100 CALM      29.99F
CAPE HATTERAS  CLOUDY    49  44  83 NE6       29.98R
TARBORO*       NOT AVBL
GOLDSBORO      CLOUDY    45  45 100 E5        29.92R
WASHINGTON     CLOUDY    43  41  91 E3          N/A
GREENVILLE     CLOUDY    43  43 100 CALM      29.98S FOG
NEW BERN       CLOUDY    47  44  90 CALM      29.97R
WILMINGTON     CLOUDY    56  53  90 E6        29.92F
$$

VAZ048-201300-
ELSEWHERE

CITY           SKY/WX    TMP DP  RH WIND       PRES   REMARKS
HARRISBURG PA  CLOUDY    34  33  96 CALM      29.98R
BALTIMORE      CLOUDY    35  35 100 E6        29.97F FOG
ANNAPOLIS      CLOUDY    37  35  92 CALM      29.98F
ANDREWS AFB    CLOUDY    37  35  93 CALM      29.95F
PHILADELPHIA   MOCLDY    34  32  92 CALM      30.01S
HENDERSON NC   MOCLDY    43  40  89 S5        29.93R
GREENSBORO     HVY RAIN  48  46  93 CALM      29.88R FOG
ROCKY MOUNT    MOCLDY    43  43 100 CALM      29.95S
$$

VAZ100-201300-
MARINE

STATION/POSITION TIME  TEMP    WIND        PRES    WAVE   SWELL
                       AIR SEA DIR/SP/G            HT/PER HT/PER
                 (UTC) (F)     (DEG/KT/KT) (MB)    (FT/S) (FT/S)
CAPE MAY NJ      1148   38 41  100/  1/  3 1015.5R
LEWES DE         1148   40 42   CALM  /  1 1016.0R
OCEAN-CITY-INLET 1148   40 42  310/  1/  2 1016.4R
WACHAPREAGUE VA  1148   38 46   CALM  /  1 1015.7F
THOMAS POINT MD  1200   38 39  100/  5/  5   N/A
GOOSES REEF MD   1150   40     170/  2/  4 1016.0F
COVE POINT MD    1148   40     160/  6/  7 1015.6F
SOLOMONS ISLAND  1148   40 41   80/  6/  6   N/A
BISHOPS HEAD MD  1148   40 44   90/  3/  5 1015.9F
PINEY POINT MD   1148          130/  6/  6   N/A
POTOMAC MD       1150   41     130/  4/  4 1014.3F
CAMBRIDGE MD     1148   37 40  120/  3/  4 1015.2R
LEWISETTA VA     1148   41 43  130/  4/  4 1014.8F
RAPPAHANNOCK LGT 1148          120/  3/  3 1016.0F
STINGRAY PT      1150   41     140/  2/  4 1015.8R
YORK RVR RNG VA  1148   44     150/  5/  5 1014.4F
YORKTOWN VA      1148   44 42  130/  4/  5 1014.7F
JAMESTOWN VA     1150   45     140/  8/ 10   N/A
DOMINION TERM VA 1148   44     120/  4/  5 1015.1F
KIPTOPEKE VA     1148      44  170/  2/  3   N/A
CHES BAY BRIDGE  1148   44 43  130/  4/  5 1015.0F
CAPE HENRY VA    1148   44     180/  3/  4   N/A
WILLOUBY STN VA  1148   45     140/  4/  4 1016.1F
S CRANEY ISL VA  1148   44     190/  5/  5 1015.1R
CAPE HENRY BUOY  1142      48                N/A     3/13   2/13
OFFSHORE WE BUOY 1151      49                N/A     4/13   3/13
64NM E OF VA BCH 1150   52 56  240/  2/  6 1015.2R   5/11   5/11
DUCK PIER NC     1148   46 45  160/  4/  4 1015.1R
44100 DUCK FRF   1135      47                N/A     4/13   3/13
44056 DUCK FRF   1130      45                N/A     4/11   2/11
OREGON INLET NC  1142   45 49   CALM  /  1 1015.6F
HATTERAS NC      1148   50 55   70/  5/  7 1014.6R
DIAMOND SHLS NC  1150   60 76  110/  2/  6 1015.2R   5/11   5/11
CAPE LOOKOUT NC  1100   62      90/  9/ 10 1013.7F
$$



USA.gov is the U.S. government's official web portal to all federal, state and local government web resources and services.